Zurück zum Katalog

STARLINK-31909

AktivKommunikationVLEO
NORAD 59663·PAYLOAD·🇺🇸 United States

Gestartet May 6, 2024 von Cape Canaveral Space Force Station

Loading…

Nächste Überflüge (nächste 24 Stunden)

TLE

AktuellSource: CelesTrak SupGP

Epoche: Sep 14, 2026, 22:43 UTC

1 59663C 24084K   26257.94701389  .00045604  00000+0  16517-2 0  2577
2 59663  43.0043  52.6111 0001640 275.9331  35.7027 15.27558019    10

Verfolge STARLINK-31909 in Echtzeit mit AllMySat

Download on the App Store